Location: Jetmore Motorplex
(37.9889°N, 99.8876°W)
Time: 19:44:17
(UTC+00:00)

Cosmos 1802 Rocket - Pass Details

Date: 17 February 2020
Orbit: 954 x 1011 km, 82.9° (Epoch: 29 March)

Event Time Altitude Azimuth Distance (km) Brightness Sun altitude
Rises 01:28:19 0° 193° (SSW) 3,643 7.2 -14.3°
Reaches altitude 10° 01:30:49 10° 196° (SSW) 2,707 6.6 -14.8°
Maximum altitude 01:36:59 66° 279° (W) 1,065 4.4 -16.0°
Drops below altitude 10° 01:43:17 10° 1° (N) 2,763 6.3 -17.2°
Sets 01:45:52 0° 4° (N) 3,724 7.0 -17.7°
